FENGYUN 1C DEB, 31089

Orbit data source: Space-Track

FENGYUN 1C DEB, 31089 is space debris in SSO originally from a launch on Mon, 10 May 1999 UTC launched from the Taiyaun Space Center, China (TSC). Fengyun 1C debris stems from the Chinese weather satellite Fengyun-1C, which was intentionally destroyed by a Chinese anti-satellite missile in 2007. This event dramatically increased the amount of space debris, with thousands of trackable fragments posing hazards to satellites and human spaceflight. The Fengyun 1C debris cloud has become a focal point in discussions about space sustainability and the need for international regulations to prevent the creation of new debris.

Loading next visibility...
Identifier
31089, 1999-025BGK
Orbit
SSO
Country
Flag of CNCN / PRC
Related business
Manufacturer
Unknown
Mission
Spacecraft
Bus & Motor
Unknown
Mass
Unknown
Launch date (UTC)
1999-05-10 (27 years ago)
Launch vehicle
Unknown
Launch site
Taiyaun Space Center, China (TSC)
Object type
Payload
Rocket body
Debris
Shape & HBR
Unknown shape, 0.1 m
Radar Cross Section
Small (<0.1 m²)

Expand to show TLE details & history
Last TLE update: 19 hours ago

TLE from 19 hours ago
0 FENGYUN 1C DEB
1 31089U 99025BGK 26070.86334831  .00000564  00000-0  42862-3 0  9997
2 31089  98.9577 214.4199 0204120 329.8331 184.6945 13.88488713692966
Epoch: 2026-03-11T20:43Z
TLE epoch observation values (Epoch: 2026-03-11T20:43:13.293Z)
Latitude
25.35319°
Longitude
-81.64551°
Altitude
1,085.759 km
Speed
7.237 km/s
True Right ascension
02h 34m 43s
True Declination
25° 13' 34"
Sunlit
Object was in daylight at epoch
Visualization orbit readout
Latitude
Unknown
Longitude
Unknown
Altitude
Unknown
Speed
Unknown
Apparent Right ascension
Unknown
Apparent Declination
Unknown
Sunlit
N/A
Visualization observer readout
Local Sidereal Time
20:00:02
Azimuth
Unknown
Elevation
Unknown
Doppler factor
Unknown
Orbital elements
Apogee altitude
1,080.34 km
Perigee altitude
781.946 km
Semi-major axis
7,309.28 km
Eccentricity
0.02041
Inclination
98.9577°
RAAN
214.4199°
Arg. of periapsis
329.8331°
True anomaly
184.50782°
Mean anomaly
184.6945°
Eccentric anomaly
184.60069°
Mean motion
3.47321 °/min
Orbital period
103.65 mins
BSTAR
0.00042862
Loading maneuver chart data...
Computing Atmospheric mass density...

Documentation

Showing up to 5 results
|